Flag for Germany Weather past 2 weeks in Memmingen, Bavaria, Germany

Now
45 °F

Sunny.


Feels Like: 44 °F
Forecast: 32 / 48 °F
Wind: 3 mph from Northeast

Location: Kempten


UV Index: 3 (Moderate)

Visibility: 22 mi


Pressure: 30.22 "Hg

Humidity: 49%

Dew point: 27 °F

Location of MemmingenLocation

Historic Weather in Memmingen

°F

Memmingen temperature yesterday

Maximum temperature yesterday: 47 °F (at 2:00 PM)
Minimum temperature yesterday: 32 °F (at 11:00 PM)
Average temperature yesterday: 39 °F

Past Weeks' High & Low Weather Summary

 TemperatureHumidityPressure
High70 °F (Apr 2, 4:00 PM)97% (Apr 11, 6:00 AM)30.42 "Hg (Apr 11, 6:00 AM)
Low25 °F (Apr 17, 7:00 AM)26% (Apr 2, 5:00 PM)29.61 "Hg (Apr 3, 4:00 PM)
Average48 °F69%30.06 "Hg
* Reported Apr 2 11:00 AM — Apr 17 11:00 AM, Memmingen, Weather by CustomWeather, © 2014

Note: Actual official high and low records may vary slightly from our data, if they occured in-between our weather recording intervals... More about our weather records

Advertising

Historic Weather Conditions — Data for Previous 24 hours

 ConditionsComfort  
Time TempWeatherWind HumidityBarometerVisibility
11:00 AM
Apr 17
45 °FSunny.3 mph49%30.22 "Hg22 mi
10:00 AM43 °FSunny.5 mph50%30.24 "Hg19 mi
9:00 AM40 °FSunny.3 mph61%30.26 "Hg19 mi
8:00 AM31 °FSunny.No wind81%30.32 "Hg9 mi
7:00 AM25 °FSunny.No wind91%30.37 "Hg6 mi
6:00 AM26 °FClear.No wind91%30.36 "Hg9 mi
4:00 AM27 °FClear.1 mph90%30.39 "Hg7 mi
3:00 AM28 °FClear.1 mph92%30.39 "Hg7 mi
2:00 AM28 °FClear.1 mph90%30.41 "Hg11 mi
1:00 AM30 °FClear.1 mph90%30.41 "Hg11 mi
12:00 AM31 °FClear.1 mph88%30.42 "Hg12 mi
11:00 PM
Apr 16
32 °FClear.1 mph84%30.42 "Hg14 mi
10:00 PM35 °FClear.1 mph77%30.40 "Hg11 mi
9:00 PM37 °FClear.1 mph73%30.39 "Hg18 mi
8:00 PM42 °FPartly sunny.2 mph57%30.35 "Hg25 mi
7:00 PM44 °FPartly sunny.2 mph52%30.34 "Hg31 mi
6:00 PM45 °FOvercast.3 mph48%30.34 "Hg34 mi
5:00 PM46 °FPartly sunny.3 mph44%30.33 "Hg22 mi
4:00 PM46 °FOvercast.3 mph50%30.34 "Hg25 mi
3:00 PM47 °FPartly sunny.5 mph45%30.33 "Hg22 mi
2:00 PM47 °FScattered clouds.3 mph44%30.32 "Hg22 mi
1:00 PM44 °FScattered clouds.5 mph48%30.35 "Hg22 mi
12:00 PM43 °FOvercast.3 mph52%30.35 "Hg19 mi
11:00 AM41 °FScattered clouds.2 mph59%30.36 "Hg14 mi
Weather by CustomWeather, © 2014

See weather overview